Dewpoint
17 15 35 52 56 60 59 59 58 60 62 62 62 62 61 62 62 62 62 63 63 64 62 61 61 62 62 62 61 61 60 59 58 57 57 57 58 58 59 60 60 60 60
16 16 17 35 54 58 60 60 59 59 60 59 60 59 59 60 61 61 61 62 62 63 63 61 61 61 61 61 61 60 59 59 59 57 56 55 55 56 58 59 59 59 60
19 20 18 17 41 55 59 60 60 59 59 58 58 58 58 59 58 59 59 60 61 62 63 62 61 61 61 60 61 61 60 58 59 58 57 54 53 54 54 54 57 58 58
26 25 23 22 19 46 56 60 60 60 59 59 57 56 56 55 56 56 58 58 60 60 61 61 62 61 61 61 61 61 60 60 58 59 59 58 55 53 52 53 55 57 56
30 30 33 31 30 26 38 57 60 61 61 60 57 56 55 56 55 56 57 59 60 60 60 61 61 60 61 60 60 61 61 60 59 59 58 59 58 56 55 55 56 55 56
29 31 35 37 38 41 41 31 56 60 61 61 60 57 56 56 56 57 58 59 60 61 61 61 61 61 61 60 61 61 61 60 60 60 59 58 57 57 57 56 56 55 56
31 32 32 32 33 36 40 47 42 58 61 61 61 59 58 57 56 57 59 59 60 60 60 61 61 61 61 61 61 61 60 60 60 59 59 59 58 58 56 56 55 54 55
32 32 33 32 33 33 36 41 50 54 59 61 62 61 59 59 57 58 59 60 60 61 62 61 61 62 62 61 61 61 60 60 60 59 59 59 59 58 58 56 56 55 54
33 32 32 32 32 33 34 35 39 46 57 61 62 62 62 61 60 59 60 62 62 62 63 63 62 63 63 62 62 61 61 61 60 60 59 59 59 59 59 58 57 56 55
32 32 32 32 32 33 33 35 35 38 44 53 61 63 63 63 63 62 61 61 62 63 63 63 63 63 63 63 63 62 62 61 61 61 60 60 60 60 60 59 59 58 57
33 33 32 31 32 33 33 34 35 35 38 43 54 60 63 63 63 63 62 63 63 63 63 63 63 63 63 64 63 63 63 62 62 62 61 61 60 60 60 60 59 59 59
30 31 32 31 31 32 32 32 32 34 36 39 42 43 52 59 63 63 63 64 64 64 64 64 63 64 63 64 63 63 63 63 62 62 62 61 61 61 61 60 60 59 60
28 29 28 28 28 29 31 31 31 31 33 36 38 42 42 44 49 56 59 61 62 63 62 63 61 62 64 64 63 63 63 63 63 63 63 62 62 62 61 61 61 60 60
29 28 27 26 26 27 29 30 31 31 32 32 36 38 40 41 42 44 48 52 57 60 62 63 60 59 62 64 64 64 63 63 63 64 64 64 63 63 62 62 62 62 61
28 28 26 25 26 27 29 31 31 30 31 31 32 36 37 37 38 39 42 44 44 47 56 60 61 62 63 63 64 64 64 64 64 64 64 64 64 63 63 63 63 63 62
28 28 27 27 28 28 30 32 30 30 31 30 31 34 35 35 36 36 37 40 41 41 48 50 55 56 59 60 59 59 60 61 63 64 64 64 63 62 62 61 62 64 63
29 29 28 29 30 29 31 31 30 30 30 31 31 32 34 34 34 34 35 37 38 41 42 45 49 52 53 54 56 57 58 59 59 61 62 63 64 63 63 61 60 59 59
31 31 30 31 31 31 30 30 30 30 31 31 31 32 33 33 33 33 33 34 36 37 41 42 46 47 51 52 55 56 57 57 57 57 58 59 60 62 62 62 62 60 60
32 32 33 32 31 29 30 30 30 30 30 31 32 32 33 33 33 33 33 34 36 36 38 38 40 44 47 49 53 53 54 54 54 54 54 54 54 56 56 56 59 59 59
32 33 32 31 30 30 30 30 30 30 29 30 31 31 32 32 32 33 33 34 35 36 37 37 38 40 45 49 50 51 51 51 50 50 50 51 51 51 50 49 51 54 55
33 32 31 30 30 31 31 30 29 29 30 31 31 31 31 31 32 32 32 33 34 35 35 36 38 39 41 44 50 49 48 49 48 48 48 47 49 49 48 47 47 49 51
32 31 31 31 31 31 30 29 29 29 29 29 29 29 30 30 31 32 32 33 33 34 34 35 36 37 39 42 44 48 47 47 47 46 46 46 45 44 44 44 46 46 45
32 32 31 31 31 30 30 29 29 29 28 28 28 28 28 28 29 30 30 32 33 33 34 34 35 35 37 40 42 42 46 45 42 43 44 44 43 43 42 42 43 42 42
32 31 31 30 30 30 29 29 29 29 28 27 27 27 27 28 28 28 29 31 32 32 33 34 35 36 37 38 40 41 42 43 41 41 42 42 41 40 39 39 39 40 41
28 29 29 29 28 28 28 27 27 27 27 28 28 28 28 28 29 29 29 29 30 31 32 32 34 34 36 38 41 42 42 42 43 42 40 41 40 41 39 38 37 38 39
28 28 28 28 28 28 27 27 26 27 28 28 28 28 28 29 29 29 30 31 31 31 32 33 33 33 34 36 38 41 43 43 42 39 41 41 40 40 38 37 36 36 38
Wind_Speed
27 22 17 22 23 22 25 28 29 29 25 24 24 22 25 20 17 18 19 19 20 20 21 17 15 17 19 19 17 13 17 15 6 7 11 15 19 21 20 17 17 19 18
28 27 23 18 25 30 33 31 32 31 33 28 25 19 20 19 19 18 20 23 24 23 23 23 20 20 17 17 17 18 11 12 13 7 2 9 9 11 17 16 17 19 13
26 26 24 21 19 27 31 32 34 34 32 33 24 17 13 9 17 21 25 27 26 25 26 25 22 21 21 22 20 20 20 16 13 18 9 4 10 5 3 7 13 14 12
20 20 26 27 20 21 26 32 32 33 33 32 27 33 32 29 30 28 24 23 26 28 27 27 25 23 22 23 22 20 21 18 17 9 18 15 4 8 16 3 4 6 11
21 24 25 24 25 20 20 25 31 32 33 31 35 32 31 31 22 21 22 24 23 28 28 27 26 27 24 25 24 20 23 21 20 17 8 17 17 12 20 24 17 7 9
26 25 25 25 29 26 22 22 27 34 33 33 37 36 37 35 27 23 24 24 25 23 27 28 29 27 26 26 24 23 24 26 22 20 19 21 11 16 16 21 27 20 19
28 30 33 34 33 34 35 27 20 31 31 34 35 39 37 34 33 30 28 24 22 23 30 30 29 27 28 25 22 22 22 24 24 25 24 20 24 22 16 16 23 17 10
28 30 33 33 34 36 37 38 33 17 24 28 31 31 33 28 28 26 22 25 26 25 19 24 24 24 21 21 19 20 22 22 24 26 24 22 21 20 22 24 18 17 14
29 29 30 33 33 35 37 38 38 36 21 16 18 21 21 22 21 21 18 19 19 21 20 20 21 18 18 17 19 20 22 20 22 23 24 22 22 19 20 20 20 22 20
29 28 27 29 31 33 33 37 39 36 33 30 7 16 17 18 17 15 17 17 15 14 14 18 21 22 20 23 21 22 20 21 21 21 20 20 21 19 17 20 20 20 25
28 23 26 25 26 29 33 33 35 37 38 35 28 16 8 16 17 18 15 17 12 17 19 20 18 18 18 17 20 21 20 22 22 20 22 25 24 21 18 18 20 21 22
22 26 24 25 27 29 30 33 33 32 31 30 30 30 28 20 10 8 7 8 14 16 17 4 3 8 11 15 20 21 21 24 23 25 23 25 21 23 23 19 22 22 22
23 25 27 25 26 27 27 28 30 31 30 29 27 29 29 26 23 20 14 9 7 4 3 10 4 6 9 18 17 22 22 24 25 26 26 26 24 24 21 23 22 22 21
17 19 24 27 29 30 27 26 27 29 29 28 26 24 24 23 23 21 18 18 14 8 2 6 10 11 17 20 18 21 24 22 22 23 23 24 24 26 25 24 25 23 22
17 19 22 24 25 27 27 28 28 25 25 27 26 25 22 21 21 23 23 19 19 19 14 5 6 10 9 9 15 19 19 18 19 19 19 23 25 29 28 22 21 21 23
18 19 20 23 23 25 25 27 30 29 25 26 26 22 25 25 22 22 23 23 21 20 17 13 8 6 5 7 11 11 9 8 12 16 16 21 26 30 32 33 32 24 23
17 19 19 17 19 23 23 23 25 25 26 25 23 23 27 27 26 24 21 20 20 20 21 19 14 12 10 12 14 9 6 6 8 13 16 17 18 24 22 27 37 38 36
17 20 21 21 17 16 21 24 19 20 23 23 23 26 26 26 26 27 25 22 20 21 18 18 16 14 17 14 14 12 9 9 11 13 14 16 16 14 15 20 23 25 27
16 18 17 18 20 20 18 20 25 27 22 21 25 25 26 26 25 26 27 26 23 23 21 20 22 18 19 18 14 11 12 12 14 12 12 12 15 12 14 15 20 23 27
17 18 18 20 21 22 21 20 18 21 25 27 25 26 26 26 27 27 27 25 23 25 22 24 24 21 22 18 17 17 13 15 16 16 15 15 16 17 15 14 15 23 27
13 14 15 16 18 20 20 22 23 21 20 22 25 27 25 24 24 25 24 24 26 25 25 25 25 25 23 20 14 15 13 15 16 17 18 15 16 17 15 14 14 20 13
13 14 14 17 17 17 19 24 27 27 25 24 24 25 25 25 24 25 25 24 23 25 25 22 26 22 22 20 21 20 20 17 17 20 17 16 15 16 17 17 15 18 19
13 12 14 17 18 17 16 21 24 25 26 27 27 26 27 25 25 27 28 25 21 22 23 20 23 25 19 19 19 19 22 20 19 18 14 13 16 18 16 16 15 12 12
13 14 15 16 19 19 20 20 22 24 26 27 29 28 28 28 25 22 23 23 22 21 21 20 21 22 22 21 15 18 16 18 15 15 13 10 9 10 13 8 7 9 13
16 16 17 18 20 21 22 21 21 23 25 26 26 27 25 27 27 25 24 25 26 22 22 23 21 23 26 21 16 19 20 18 15 12 8 7 7 11 13 11 9 7 8
15 17 19 19 22 23 24 22 22 24 27 27 26 26 28 26 26 28 29 25 31 31 31 34 31 27 33 33 31 27 24 21 16 10 14 13 12 13 12 13 12 7 7
Wind_Direction
296 295 268 229 212 203 198 200 193 193 188 197 199 205 208 205 204 205 204 201 201 198 200 206 201 198 205 210 209 213 226 235 200 260 285 275 259 257 252 251 251 254 250
296 295 290 261 209 205 203 202 203 195 194 200 207 208 207 217 212 207 207 204 202 201 202 205 205 202 209 210 204 207 220 226 188 213 217 293 298 260 247 239 243 253 249
295 305 310 297 249 217 207 205 205 201 200 203 193 198 196 208 206 213 213 212 204 202 204 207 207 204 206 214 209 206 210 225 202 205 208 239 245 318 281 255 250 253 257
342 325 314 316 306 251 221 215 209 204 204 198 197 197 204 212 219 218 217 213 205 206 206 208 206 205 206 215 211 205 211 209 219 210 226 241 208 268 298 274 259 240 250
346 350 345 339 332 326 289 228 216 211 205 198 200 201 206 216 220 221 219 212 206 208 208 208 206 208 208 215 213 204 206 210 220 213 194 225 235 233 245 277 282 268 252
360 8 5 6 2 355 340 301 230 216 206 200 202 205 210 211 209 210 211 213 208 208 211 208 209 210 211 212 209 206 203 210 215 220 211 218 214 221 221 238 263 265 275
11 13 11 12 9 7 3 350 299 222 210 206 203 208 212 213 212 207 207 208 215 211 213 208 208 210 213 212 209 208 211 208 212 215 221 219 228 234 225 226 253 262 278
12 15 14 14 9 10 11 10 1 297 213 212 215 215 215 215 220 217 214 209 207 216 212 210 216 218 216 212 202 207 214 214 215 219 219 222 226 225 225 236 242 263 263
7 10 12 13 7 11 14 15 15 14 4 213 218 222 226 228 229 227 222 222 218 207 199 198 203 214 217 213 211 215 221 220 221 226 227 222 228 221 220 225 225 235 262
8 2 4 13 11 7 9 14 18 16 17 10 289 208 216 225 226 223 219 218 228 231 219 193 192 200 207 212 209 222 224 218 225 228 229 229 237 230 215 214 220 220 236
4 3 0 2 15 13 11 11 12 15 15 11 11 2 270 221 219 220 218 214 212 210 209 209 207 209 218 217 215 218 222 223 228 226 226 228 229 230 224 214 217 221 222
6 357 6 2 10 13 11 10 8 13 9 10 15 18 21 4 338 277 229 188 208 212 198 184 238 261 234 238 231 230 224 223 228 229 228 232 231 229 225 217 221 224 223
12 4 359 4 6 7 10 10 5 5 8 5 9 11 17 15 11 11 7 330 287 257 268 205 226 275 253 268 229 233 231 228 225 229 229 233 231 234 226 221 221 222 226
13 5 359 360 1 5 359 3 7 2 360 4 357 9 10 3 5 7 13 12 355 343 1 227 223 259 263 255 252 242 238 234 231 229 232 236 233 234 230 225 224 223 223
4 1 357 356 355 357 350 358 357 355 356 357 356 352 354 359 1 357 358 3 7 3 358 11 238 212 220 228 245 246 243 243 246 241 237 240 236 234 232 229 231 225 226
349 351 354 351 351 353 347 355 347 343 349 355 342 347 349 350 353 349 349 352 349 359 353 337 307 341 290 262 252 245 248 255 266 265 259 248 243 241 238 235 236 230 231
337 339 343 349 345 344 343 345 339 337 343 342 338 343 345 344 342 337 337 339 344 339 337 335 328 295 273 270 275 276 271 265 264 269 265 259 241 235 232 242 241 242 240
327 332 335 341 346 341 341 335 331 338 337 336 333 340 335 333 330 325 326 330 332 328 320 314 308 297 275 267 263 272 271 261 251 249 256 267 271 267 251 241 240 240 240
323 319 325 335 336 342 345 336 334 335 335 333 332 329 328 321 322 320 321 321 322 315 310 309 307 305 292 279 259 251 264 262 265 270 274 278 288 291 300 293 262 251 245
322 325 338 333 332 336 341 336 332 326 327 328 326 324 322 317 320 313 312 312 309 302 304 302 296 291 282 262 249 250 248 256 263 271 278 284 287 294 299 295 278 270 264
327 334 332 325 322 325 329 328 327 323 318 316 317 319 317 312 308 307 306 305 304 300 298 298 295 293 288 292 265 258 261 258 266 266 274 276 282 292 290 281 275 266 276
328 328 324 322 320 318 326 324 323 323 320 320 315 313 311 310 308 305 301 299 294 293 290 293 292 289 290 285 284 263 252 261 260 266 270 282 287 294 293 286 277 281 275
318 316 317 316 317 321 323 315 309 313 315 316 313 311 308 307 305 303 300 295 292 284 286 285 286 289 294 285 275 268 261 258 257 258 271 290 301 302 300 289 283 269 245
325 326 324 321 317 319 318 309 311 315 316 315 314 311 308 305 299 294 289 289 286 282 279 280 284 287 288 287 295 287 274 256 258 271 284 291 308 311 298 299 275 244 235
326 325 324 321 315 317 313 313 320 323 318 314 311 308 305 301 299 291 287 284 281 276 281 282 281 285 284 283 295 297 279 247 244 263 272 290 296 287 287 284 269 242 244
324 324 324 320 318 319 318 320 323 327 323 318 316 311 306 302 297 294 292 274 270 269 263 260 262 270 268 278 282 278 260 249 245 226 240 246 258 267 265 255 241 215 215